Weather in Korba

India     22°20′48″N   82°42′17″E
temp.,
°C
wind,
m/s
gust,
m/s
humid.,
%
clouds,
%
prec.,
mm/h
press.,
hPa
HPBL,
m
19 january, wed
wed1923:30+14nnw23342 0.0 101630
02:30+12n22355 0.0 101536
05:30+11n33340 0.0 101637
08:30+15n23290 0.0 1018195
11:30+22n23180 0.0 1016941
14:30+25wnw33140 0.0 10121423
17:30+20nnw22190 0.0 101219
20:30+16nw11220 0.0 101411
20 january, thu
thu2023:30+14n22265 0.0 101418
02:30+13n22283 0.0 101221
05:30+12n22275 0.0 101325
08:30+16nne11230 0.0 1014152
11:30+23sw11170 0.0 1013774
14:30+25w23160 0.0 10091471
17:30+21ssw22250 0.0 100913
20:30+18e00283 0.0 101111
21 january, fri
fri2123:30+17nne223078 0.0 101114
02:30+16e113471 0.0 101011
05:30+17nne113222 0.0 101016
08:30+19se223126 0.0 1013175
11:30+25se32230 0.0 10121064
14:30+27sw23232 0.0 10092338
17:30+23sw223262 0.0 100912
20:30+22nne1132100 0.0 101111
22 january, sat
sat2223:30+19n223960 0.0 101139
02:30+16nne22460 0.0 101029
05:30+15ene22500 0.0 101015
08:30+19e22420 0.0 1012194
11:30+25sse33280 0.0 10111095
14:30+27s23250 0.0 10072224
17:30+23sse22330 0.0 100712
20:30+21se22372 0.0 100915
23 january, sun
sun2323:30+18e224422 0.0 100922
02:30+17ne0049100 0.0 100711
05:30+16ene115112 0.0 100711
08:30+20ssw1243100 0.0 1011213
11:30+26s453462 0.0 1010913
14:30+27sw47370 0.0 10071388
17:30+23ese225413 0.7 100622
20:30+20ese226116 0.1 100917